Regional Weather Roundup
Issued by NWS Northern Indiana

Home | Current Version | Previous Version | Graphics & Text | Print | Product List | Glossary On
Versions: 1 2 3 4 5 6 7 8 9 10 11 12 13 14 15 16 17 18 19 20 21 22 23 24 25 26 27 28 29 30 31 32 33 34 35 36 37 38 39 40 41 42 43 44 45 46 47 48 49 50
000
ASUS43 KIWX 242200
RWRIWX

KIWX WEATHER ROUNDUP
NATIONAL WEATHER SERVICE NORTHERN INDIANA
600 PM EDT SAT SEP 24 2016

NOTE: "FAIR" INDICATES FEW OR NO CLOUDS BELOW 12,000 FEET WITH NO
SIGNIFICANT WEATHER AND/OR OBSTRUCTIONS TO VISIBILITY.

* THESE STATIONS ARE NOT UNDER NWS QUALITY CONTROL. THEY ALSO MAY NOT
  REPORT WEATHER SUCH AS PRECIPITATION OR FOG.

INZ001>027-242300-
NORTHERN INDIANA

CITY           SKY/WX    TMP DP  RH WIND       PRES   REMARKS
GARY*          MOSUNNY   73  66  78 NE12      30.14F
SOUTH BEND     SUNNY     74  62  66 E5        30.15F
GOSHEN         SUNNY     76  59  55 E7        30.15F
ANGOLA*        SUNNY     73  66  78 E6        30.17S
FORT WAYNE     MOSUNNY   75  60  59 E8        30.15F
PERU/GRISSOM   SUNNY     77  65  65 E8        30.12F

$$
INZ028>050-242300-
CENTRAL INDIANA

CITY           SKY/WX    TMP DP  RH WIND       PRES   REMARKS
LAFAYETTE      SUNNY     78  68  71 E8        30.10S
MUNCIE*        MOSUNNY   78  64  61 NE6       30.14F
INDIANAPOLIS   MOSUNNY   82  67  60 NE8       30.10F

$$
MIZ043>046-050>051-056>058-064>065-071>073-077>080-242300-
SOUTHWEST LOWER MICHIGAN

CITY           SKY/WX    TMP DP  RH WIND       PRES   REMARKS
BATTLE CREEK   SUNNY     72  56  57 SE6       30.19S
BENTON HARBOR  SUNNY     75  61  61 SE7       30.15F
COLDWATER*     SUNNY     71  56  58 E5        30.18S
HILLSDALE*     PTSUNNY   70  54  56 E5        30.18S
HOLLAND        SUNNY     71  57  61 E8        30.19S
GRAND RAPIDS   MOSUNNY   69  52  54 NE10      30.20F
KALAMAZOO      SUNNY     73  56  54 CALM      30.18S
STURGIS*       SUNNY     73  57  55 E5        30.16S
THREE RIVERS*  FAIR      73  59  61 E5        30.17S

$$
OHZ001>008-015>018-024>025-242300-
NORTHWEST OHIO

CITY           SKY/WX    TMP DP  RH WIND       PRES   REMARKS
DEFIANCE       MOSUNNY   73  57  57 E6        30.18R
FINDLAY        SUNNY     73  56  54 NE10      30.16F
TOLEDO EXPRESS SUNNY     68  56  65 E8        30.18F
TOLEDO METCALF SUNNY     69  54  58 E8        30.20S
LIMA           MOSUNNY   74  59  59 NE7       30.16S

$$
AND FOR LAKE MICHIGAN COASTAL AND OPEN LAKE BUOY OBSERVATIONS

STATION/POSITION TEMP    WIND        PRES    VSBY  WAVE
                 AIR SEA DIR/SP/G                  HT/PER
                 (F)     (DEG/KT/KT) (MB)    (MI)  (FT/S)
CALUMET HARBOR    71      40/  6/ 10 1020.1F
MICHIGAN CITY     69      10/ 12/ 14   N/A
BURNS HARBOR      70      70/  8/  9 1020.7F
SAINT JOSEPH      75      CALM  /  7 1021.7
SOUTH LAKE BUOY   68 72  100/ 10/ 12 1021.4          2/ 3
4 MI NW BRIDGMAN  71 71   20/  6/  8 1020.5F         1
MICHIGAN CITY     71 71   40/ 12/ 16   N/A           3/ 3

$$
&&




USA.gov is the U.S. government's official web portal to all federal, state and local government web resources and services.